Location: Montreal
(45.5087°N, 73.5540°W)
Time: 11:55:09
(UTC-05:00)

ISS - Visible Passes

Search period start: 18 February 2019 00:00
Search period end: 28 February 2019 00:00
Orbit: 403 x 411 km, 51.6° (Epoch: 19 February)

Date Brightness Start Highest point End Pass type
(mag) Time Alt. Az. Time Alt. Az. Time Alt. Az.
22 Feb -1.0 06:00:43 10° S 06:03:06 19° SE 06:05:30 10° E visible
23 Feb -0.6 05:10:58 10° SSE 05:11:50 11° SE 05:12:42 10° ESE visible
24 Feb -2.6 05:53:16 10° SW 05:56:22 41° SE 05:59:29 10° ENE visible
25 Feb -1.7 05:02:51 13° S 05:04:58 24° SE 05:07:41 10° E visible
26 Feb -1.0 04:13:49 14° SE 04:13:49 14° SE 04:15:26 10° E visible
26 Feb -3.9 05:46:33 11° WSW 05:49:44 89° SSE 05:53:01 10° ENE visible
27 Feb -3.3 04:57:21 39° SSW 04:58:13 52° SE 05:01:25 10° ENE visible
